EUTELSAT HOTBIRD 13C (33459 NORAD) Tracking and Keplerian Element Data

This shows tracking and keplerian element data for the satellite.

Feedback or suggestion? Click here.




ElementValue
Catalog33459
NameEUTELSAT HOTBIRD 13C
Epoch Orbit4234
Epoch Day34.75255697
Epoch Year2025
RAAN85.0673
Inclination1.6634
Eccentricity0.0006413
Argument of Perigee218.3791
Mean Anonmoly89.0996
Mean Motion1.00270662
Decay Rate-9.7E-07
L11 33459U 08065A 25034.75255697 -.00000097 00000+0 00000+0 0 9998
L22 33459 1.6634 85.0673 0006413 218.3791 89.0996 1.00270662 42348



Live tracking and technical data element details for EUTELSAT HOTBIRD 13C (NORAD 33459). EUTELSAT HOTBIRD 13C can be tracked NOW for your location showing map with azimuth and elevation plus other details from your city location.







IsCatalogInMostPopularTable: catalog: 33459, numindb: 371
Update: records affected: 1



GetName: 33459 EUTELSAT HOTBIRD 13C

Hit Count: updated at: Fri, 16 May 2025 10:37:52 GMT